User: anonymous   Login
Location: Irma
(52.9170°N, 111.2330°W)
Time: 01:17:15
(UTC-07:00)
Language:

Cosmos 2279 Rocket - Orbit

View from above orbital plane
View from above orbital plane
View from above satellite
View from above satellite

Ground track
Ground track

The orbit data is extracted from the following two-line orbital elements,

1 23093U 94024B   17350.51035665 +.00000125 +00000-0 +11009-3 0  9995
2 23093 082.9455 338.8811 0009384 206.2963 153.7719 13.77744429656295
Epoch (UTC): 16 December 2017 12:14:54
Eccentricity: 0.0009384
inclination: 82.9455°
perigee height: 965 km
apogee height: 979 km
right ascension of ascending node: 338.8811°
argument of perigee: 206.2963°
revolutions per day: 13.77744429
mean anomaly at epoch: 153.7719°
orbit number at epoch: 65629

The dashed part of the orbit path shows where the satellite is in the earth's shadow,  

DLR